Dewpoint
21 24 25 25 25 26 23 26 28 30 31 31 32 30 29 33 30 31 31 29 41 45 46 49 52 54 55 56 56 58 58 57 56 56 56 54 52 50 47 47 46 45 45 45
27 22 23 23 26 26 23 24 29 29 28 31 30 31 36 31 31 29 29 32 35 47 49 51 52 54 54 54 54 55 55 55 55 55 54 54 51 49 47 45 44 43 43 43
24 29 26 24 26 24 25 24 23 27 29 29 28 30 31 31 31 30 30 35 40 49 51 52 54 53 52 51 50 51 51 50 49 48 47 46 47 47 45 43 41 40 40 39
28 30 24 26 27 26 24 23 22 21 23 24 23 25 27 29 31 31 38 43 49 50 50 51 51 50 49 48 48 47 46 46 46 44 43 41 40 39 38 39 38 38 39 40
29 27 29 30 25 24 24 22 25 23 23 23 23 25 31 32 35 40 43 45 45 46 47 46 47 46 46 45 45 45 45 44 43 42 39 38 38 37 38 38 38 37 38 38
33 27 25 30 30 27 29 24 27 29 28 28 27 27 31 36 41 43 43 43 43 43 43 44 42 43 42 42 42 42 42 42 41 40 39 40 40 40 39 39 39 40 39 40
30 29 30 32 29 32 26 27 33 31 31 33 30 34 36 41 41 42 41 41 42 41 41 40 40 40 40 40 40 41 41 41 41 40 40 40 40 39 39 38 37 35 36 36
34 29 27 37 32 28 31 34 33 33 32 33 37 38 40 40 39 39 39 40 40 40 40 40 40 40 39 39 40 40 40 40 40 40 39 39 39 38 39 38 35 32 31 30
36 35 39 36 39 41 41 39 38 34 32 36 40 39 39 38 38 38 38 38 39 39 40 40 39 39 38 39 40 40 39 39 38 38 38 38 37 33 32 32 28 27 28 29
32 33 36 35 40 41 46 43 42 36 36 40 40 40 39 38 38 38 37 37 38 39 39 38 39 38 39 39 39 38 36 34 31 29 26 23 27 26 25 24 25 25 24 24
35 35 36 36 42 45 46 45 44 42 41 38 42 39 38 38 38 37 37 38 39 39 38 38 38 38 37 35 33 31 29 26 27 25 22 22 24 22 19 22 24 22 23 23
34 37 38 37 42 43 40 47 45 43 42 40 40 40 39 38 38 37 37 38 38 38 36 35 34 33 33 32 30 27 26 26 26 25 23 20 21 21 23 22 22 22 23 22
34 37 34 34 38 41 41 42 42 41 41 40 41 39 39 38 38 37 38 38 36 34 32 30 25 24 29 29 28 27 25 24 25 23 23 24 23 21 20 22 22 21 20 19
41 41 39 40 39 40 40 39 41 39 38 38 40 40 39 38 38 37 36 34 32 27 24 22 20 20 22 23 23 24 25 26 24 25 25 24 23 24 24 23 22 22 20 18
40 41 40 40 39 39 38 38 38 38 39 40 40 40 38 36 35 34 31 26 22 20 18 18 18 19 21 22 22 23 24 24 23 22 22 23 24 24 23 23 22 21 22 20
39 40 39 39 40 38 38 38 39 39 39 38 35 31 30 28 27 25 23 21 19 18 18 20 20 19 22 21 22 23 24 25 25 25 24 23 23 21 20 20 20 20 20 18
36 35 36 36 39 35 34 33 31 30 29 27 26 26 24 22 21 20 20 20 20 20 21 22 22 24 26 26 25 23 22 23 24 23 21 20 20 19 19 19 18 18 17 14
35 34 34 34 34 33 31 29 28 27 26 25 24 23 22 21 20 20 21 21 21 20 21 21 22 23 24 24 24 23 22 21 20 19 20 19 16 15 18 17 17 16 15 14
31 31 31 30 30 29 27 26 26 25 24 24 22 21 22 22 22 21 21 19 18 17 19 20 21 20 21 22 21 21 20 20 18 18 17 16 16 17 15 15 14 14 14 14
26 26 25 25 26 26 25 25 25 24 25 24 22 20 19 19 19 19 18 17 19 19 21 20 20 18 18 19 20 19 19 18 16 16 15 14 14 12 12 13 14 13 10 10
24 25 24 24 23 24 23 24 23 22 23 23 21 20 19 20 20 19 17 15 20 21 20 18 19 16 15 15 18 19 17 16 15 15 13 11 10 11 10 9 9 7 6 5
23 22 22 22 21 22 23 24 23 23 22 22 21 20 19 18 18 18 19 18 20 19 17 15 14 13 12 17 17 16 15 14 13 12 10 8 5 3 2 -0 -1 -0 -4 -8
23 23 22 22 21 21 22 22 22 22 21 21 20 19 20 20 20 17 15 20 17 16 14 13 11 10 11 15 14 12 11 9 9 8 9 8 7 5 1 1 1 -6 -9 -3
24 23 23 23 21 20 20 21 22 22 21 21 20 21 19 17 18 18 18 16 14 13 12 10 10 9 9 10 8 7 6 4 4 1 -0 -2 -7 -8 -3 -6 -5 -1 -3 -6
20 19 20 20 20 20 22 22 20 19 19 19 19 19 18 18 16 17 15 15 15 12 8 7 7 6 8 5 3 2 1 4 4 1 2 -3 -7 -10 -11 -8 -2 -2 -5 -7
19 18 18 18 17 17 18 16 15 18 18 17 17 17 17 17 16 16 14 12 13 12 13 7 7 8 1 -2 -5 -7 -7 -5 1 0 -7 -10 -13 -12 -9 -5 -4 -6 -11 -16
15 15 14 15 15 12 12 13 13 12 14 15 14 14 14 14 13 11 9 10 11 7 4 3 6 7 2 -1 1 -1 -7 -9 -9 -6 -10 -14 -16 -17 -10 -10 -13 -18 -19 -19
Lifted_Index
2 1 0 0 0 0 0 0 0 0 -0 -0 -1 -1 -0 -0 0 0 0 0 -1 -1 -2 -2 -3 -4 -4 -4 -4 -4 -4 -4 -4 -4 -4 -4 -3 -2 -1 -0 1 1 2 2
2 1 0 0 0 1 0 0 0 0 0 0 -0 -1 -1 -0 0 0 0 0 -1 -2 -3 -3 -3 -3 -4 -4 -3 -3 -3 -4 -4 -4 -4 -3 -2 -1 1 2 2 2 3 3
1 1 1 1 2 1 1 0 0 0 0 0 -0 -1 -1 -0 0 0 0 0 -1 -3 -3 -3 -3 -3 -3 -3 -3 -3 -3 -3 -3 -3 -2 -1 1 2 3 4 4 4 4 4
1 1 1 2 2 2 1 1 1 1 1 0 -0 -0 -0 0 0 0 0 -1 -2 -3 -4 -3 -3 -3 -3 -3 -3 -3 -2 -2 -1 -0 1 2 3 4 5 5 5 5 6 6
1 1 1 2 2 2 1 1 1 1 1 1 0 -0 -0 0 -0 -0 -1 -1 -2 -3 -3 -3 -3 -3 -2 -2 -2 -1 -0 1 2 3 4 5 5 5 6 6 6 7 8 9
0 0 1 2 2 1 1 1 1 1 1 0 -0 -0 -0 -0 -0 -1 -1 -1 -1 -1 -1 -1 -1 -1 -1 -0 1 2 3 4 5 5 6 6 6 6 7 8 8 10 11 12
-0 0 1 1 1 0 0 1 1 0 -0 -0 -0 -1 -1 -0 -0 -0 -0 -0 -0 0 0 1 1 1 2 3 4 5 6 6 6 6 7 7 7 8 9 10 11 12 13 13
0 0 0 0 -0 -0 0 0 -0 -1 -0 -1 -1 -1 -1 -0 0 0 0 1 1 1 2 3 3 4 4 5 6 6 7 7 7 7 8 8 9 10 11 12 13 14 14 14
1 0 0 -0 -0 -0 -0 -1 -1 -1 -1 -1 -1 -1 -0 0 1 1 1 1 2 2 3 4 5 6 6 6 7 7 7 7 7 8 9 10 11 11 12 13 14 14 15 15
1 1 1 1 1 0 -0 -1 -1 -1 -1 -1 -1 -1 -0 0 1 1 2 2 2 3 4 5 6 6 7 7 7 7 7 7 8 9 10 11 12 13 13 14 15 15 15 16
2 2 2 2 2 1 1 0 -0 -1 -1 -1 -1 -1 -0 0 1 1 2 2 3 4 4 5 6 7 7 8 8 7 7 8 9 10 11 12 13 14 15 16 16 17 17 17
2 2 2 2 2 2 1 1 0 -0 -1 -1 -1 -0 -0 -0 1 1 2 3 4 4 5 6 7 7 8 9 9 9 9 9 11 12 13 14 15 16 17 17 18 19 19 19
1 1 1 1 1 1 1 1 1 1 0 -0 -0 0 0 0 1 2 3 4 4 5 5 6 7 8 9 11 11 11 11 12 13 14 16 16 17 17 17 18 18 19 20 21
1 1 1 1 1 1 2 2 1 1 1 1 0 0 0 0 1 3 4 4 5 5 6 6 7 9 11 13 13 13 14 15 16 17 17 18 18 18 18 17 18 19 20 21
1 1 1 1 1 1 1 1 1 1 1 1 1 1 1 1 2 3 4 5 5 6 7 8 9 11 14 15 15 16 16 17 18 18 18 18 18 18 18 18 18 19 20 21
1 1 1 1 1 1 1 1 1 2 2 2 2 1 1 2 2 4 5 6 6 7 9 10 12 14 16 17 18 18 18 19 18 18 18 18 18 18 18 19 19 20 20 21
1 1 1 1 1 0 0 1 1 2 2 2 2 2 2 2 3 4 6 8 9 10 12 13 15 17 18 19 19 19 18 18 18 18 18 18 18 19 19 19 20 20 21 21
2 2 1 1 1 1 1 1 1 2 3 3 3 3 3 3 4 6 8 11 12 13 14 16 18 19 19 19 19 19 18 18 18 18 18 19 19 20 20 20 20 21 21 22
4 4 3 3 3 2 2 2 3 4 4 4 4 4 5 6 7 9 11 13 14 15 16 18 19 20 20 20 19 19 19 19 19 19 19 20 20 21 21 21 21 21 21 22
7 7 6 6 6 6 6 6 7 7 8 8 8 8 8 10 11 13 13 14 15 17 19 20 20 20 20 20 20 20 20 20 20 20 20 21 21 21 22 22 22 22 22 22
10 10 10 10 10 10 11 11 11 11 12 12 12 12 12 14 15 16 16 16 18 20 21 21 21 21 21 21 22 21 21 21 21 21 21 21 22 22 22 22 23 23 23 23
12 12 12 12 13 13 14 14 14 14 14 14 15 15 15 16 17 17 18 18 20 21 22 22 22 22 22 23 23 22 22 22 22 22 22 23 23 23 23 24 24 24 24 23
14 14 14 14 14 15 15 15 16 16 16 16 16 17 17 17 18 18 19 20 22 22 22 23 23 23 23 23 23 23 23 23 23 24 24 24 24 24 24 24 24 24 24 24
15 15 15 15 15 15 15 16 17 17 17 17 17 18 18 18 19 20 21 22 23 23 23 23 24 24 24 24 24 24 24 25 25 25 25 25 25 25 24 24 24 24 24 24
15 15 15 16 15 16 16 17 17 17 17 18 18 19 20 20 21 22 23 23 24 24 24 24 25 25 25 25 25 25 25 26 26 26 25 25 25 24 24 24 24 24 24 24
15 15 16 16 16 17 17 18 17 18 18 19 19 21 22 22 23 23 24 24 24 25 25 25 26 26 26 26 25 25 25 25 25 25 24 24 24 24 23 23 24 24 23 23
15 16 16 16 17 18 18 18 18 18 19 19 20 21 22 23 24 24 24 24 25 25 25 26 26 26 26 25 25 25 24 24 24 24 24 24 24 23 23 23 23 23 23 23